Location: Aulnoy
(48.8410°N, 3.0967°E)
Time: 03:34:25
(UTC+00:00)

Tiangong - Visible Passes

Search period start: 28 February 2024 00:00
Search period end: 09 March 2024 00:00
Orbit: 375 x 385 km, 41.5° (Epoch: 27 February)

Date Brightness Start Highest point End Pass type
(mag) Time Alt. Az. Time Alt. Az. Time Alt. Az.
29 Feb 0.2 18:49:52 10° S 18:51:02 12° SSE 18:51:11 12° SSE visible
01 Mar 0.1 19:23:47 10° SW 19:25:08 16° SSW 19:25:08 16° SSW visible
02 Mar 0.1 18:23:03 10° SSW 18:24:56 15° SSE 18:26:49 10° SE visible
02 Mar 0.8 19:58:37 10° SW 19:58:58 12° SW 19:58:58 12° SW visible
03 Mar -0.4 18:57:26 10° SW 18:59:50 20° S 19:00:34 19° SSE visible
04 Mar -0.1 19:32:20 10° SW 19:34:11 19° SSW 19:34:11 19° SSW visible
05 Mar -0.3 18:30:56 10° SW 18:33:22 21° S 18:35:38 11° SE visible
05 Mar 1.0 20:07:41 10° SW 20:07:44 10° SW 20:07:44 10° SW visible
06 Mar -0.1 19:05:53 10° WSW 19:08:05 18° SSW 19:09:08 15° SSE visible
07 Mar 0.6 19:41:44 10° SW 19:42:34 11° SSW 19:42:34 11° SSW visible
08 Mar 0.4 18:39:18 10° SW 18:41:10 15° SSW 18:43:00 10° SSE visible
